Location: Newark
(33.6439°N, 114.9881°W)
Time: 18:53:17
(UTC+00:00)

A-11 Canister half - Pass Details

Date: 29 August 2019
Orbit: 1527 x 1682 km, 47.3° (Epoch: 15 October)

Event Time Altitude Azimuth Distance (km) Brightness Sun altitude
Rises 18:00:14 0° 250° (WSW) 4,788 11.4 56.4°
Reaches altitude 10° 18:03:23 10° 255° (WSW) 3,825 11.0 56.9°
Maximum altitude 18:13:00 58° 333° (NNW) 1,871 10.0 58.3°
Drops below altitude 10° 18:22:56 10° 51° (NE) 3,934 11.3 59.7°
Sets 18:26:14 0° 56° (NE) 4,931 11.7 60.2°
